Regional Weather Roundup
Issued by NWS

Home | Current Version | Previous Version | Text Only | Print | Product List | Glossary Off
Versions: 1 2 3 4 5 6 7 8 9 10 11 12 13 14 15 16 17 18 19 20 21 22 23 24 25 26 27 28 29 30 31 32 33 34 35 36 37 38 39 40 41 42 43 44 45 46 47 48 49 50

000
ASUS43 KLSX 240057
RWRMO

WEATHER SUMMARY FOR MISSOURI
NATIONAL WEATHER SERVICE SPRINGFIELD MO
700 PM CST MON JAN 23 2017

NOTE: "FAIR" INDICATES FEW OR NO CLOUDS BELOW 12,000 FEET WITH NO
       SIGNIFICANT WEATHER AND/OR OBSTRUCTIONS TO VISIBILITY.
       CURRENT SKY AND/OR WEATHER CONDITIONS ARE NOT AVAILABLE FOR
       CHILLICOTHE AND FARMINGTON.

MOZ001>031-035>038-043-044-053-054-240200-
...NORTHERN AND WESTERN MISSOURI...

CITY           SKY/WX    TMP DP  RH WIND       PRES   REMARKS
KANSAS CTY INT CLEAR     36  29  75 SE8       29.83R WCI  30
LEE`S SUMMIT   CLEAR     37  33  85 SE6       29.84S
ST JOSEPH      CLEAR     34  31  88 E7        29.84S WCI  28
CHILLICOTHE      N/A     35  29  78 E3        29.87F

$$
MOZ066>068-077>081-088>096-101>105-240200-
...SOUTHWEST MISSOURI...

CITY           SKY/WX    TMP DP  RH WIND       PRES   REMARKS
SPRINGFIELD    CLEAR     41  31  67 E10       29.82F
JOPLIN         CLEAR     42  32  67 VRB3      29.82S
BRANSON        CLEAR     39  32  75 CALM      29.85R

$$
MOZ032>034-039>042-045>050-055>058-069>072-240200-
...CENTRAL MISSOURI...

CITY           SKY/WX    TMP DP  RH WIND       PRES   REMARKS
COLUMBIA       NOT AVBL
JEFFERSON CITY CLOUDY    37  31  78 NW5       29.87S
ROLLA          PTCLDY    37  33  85 NW5       29.83R
SEDALIA        CLOUDY    35  31  85 S3        29.88R
WARRENSBURG    PTCLDY    36  32  87 CALM      29.85S

$$
MOZ051-052-059>065-240200-
...EAST CENTRAL MISSOURI...

CITY           SKY/WX    TMP DP  RH WIND       PRES   REMARKS
ST LOUIS INTL  CLOUDY    42  34  73 NW3       29.86R

$$
MOZ072>076-082>087-097>100-106>115-240200-
...SOUTH CENTRAL AND SOUTHEAST MISSOURI...

CITY           SKY/WX    TMP DP  RH WIND       PRES   REMARKS
CAPE GIRARDEAU CLOUDY    43  36  75 N7        29.85S
POPLAR BLUFF   CLEAR     42  36  79 N5        29.85S
WEST PLAINS    CLEAR     41  32  70 CALM      29.85R

$$



USA.gov is the U.S. government's official web portal to all federal, state and local government web resources and services.